This demonstration page uses our WeatherBlox Daily Observations layout. Learn more.

Hourly Observations for February 11, 2015

Temp ( °F °C ) Dew Point ( °F °C ) Humidity (%) Winds ( mph kmh ) Pressure ( in mb ) Visibility ( mi km ) Precip ( " mm )
12:15 am 00:15 Clear 35 1.8 32 0.2 89 89 NNE 9 15 30.21 1023 10 16.0934 0 0
12:35 am 00:35 Clear 35 1.5 33 0.4 92 92 N 9 15 30.24 1024 10 16.0934 0 0
12:55 am 00:55 Clear 37 2.6 34 1 89 89 N 10 17 30.24 1024 10 16.0934 0 0
1:15 am 01:15 Mostly Cloudy 39 3.8 34 1.1 83 83 N 10 17 30.24 1024 10 16.0934 0 0
1:35 am 01:35 Partly Cloudy 37 2.9 32 0 81 81 N 14 22 30.27 1025 10 16.0934 0 0
1:55 am 01:55 Partly Cloudy 36 2.2 31 -0.5 83 83 N 16 26 30.27 1025 10 16.0934 0 0
2:15 am 02:15 Partly Cloudy 35 1.6 29 -1.6 80 80 NNW 14 22 30.3 1026 10 16.0934 0 0
2:35 am 02:35 Clear 34 1.1 28 -2.2 79 79 NNW 16 26 30.33 1027 10 16.0934 0 0
2:55 am 02:55 Partly Cloudy 33 0.5 28 -2.5 81 81 NNW 17 28 30.33 1027 10 16.0934 0 0
3:15 am 03:15 Partly Cloudy 33 0.3 27 -2.8 80 80 N 16 26 30.36 1028 10 16.0934 0 0
3:35 am 03:35 Clear 32 0 26 -3.2 79 79 NNW 15 24 30.36 1028 10 16.0934 0 0
3:55 am 03:55 Clear 31 -0.5 25 -3.8 79 79 NNW 13 20 30.36 1028 10 16.0934 0 0
4:15 am 04:15 Clear 30 -1 25 -4 80 80 NNW 10 17 30.36 1028 10 16.0934 0 0
4:35 am 04:35 Clear 30 -1.2 24 -4.2 80 80 NNW 13 20 30.42 1030 10 16.0934 0 0
4:55 am 04:55 Clear 30 -1.2 24 -4.4 79 79 NNW 12 19 30.42 1030 10 16.0934 0 0
5:15 am 05:15 Partly Cloudy 30 -1.3 24 -4.6 79 79 N 13 20 30.42 1030 10 16.0934 0 0
5:35 am 05:35 Clear 29 -1.5 23 -4.9 78 78 N 15 24 30.45 1031 10 16.0934 0 0
5:55 am 05:55 Partly Cloudy 28 -2 21 -6.1 74 74 N 14 22 30.45 1031 10 16.0934 0 0
6:15 am 06:15 Partly Cloudy 28 -2.2 21 -6.2 74 74 N 12 19 30.45 1031 10 16.0934 0 0
6:35 am 06:35 Clear 27 -2.6 21 -6.1 77 77 N 10 17 30.48 1032 10 16.0934 0 0
6:55 am 06:55 Clear 28 -2.5 21 -6.1 77 77 N 14 22 30.48 1032 10 16.0934 0 0
7:15 am 07:15 Clear 27 -2.6 21 -6.1 77 77 N 16 26 30.48 1032 10 16.0934 0 0
7:35 am 07:35 Clear 27 -3 21 -6.2 79 79 N 14 22 30.48 1032 10 16.0934 0 0
7:55 am 07:55 Sunny 27 -2.7 20 -6.5 75 75 N 15 24 30.5 1033 10 16.0934 0 0
8:15 am 08:15 Sunny 27 -2.6 20 -6.5 75 75 N 12 19 30.5 1033 10 16.0934 0 0
8:35 am 08:35 Sunny 28 -2.5 21 -6.1 77 77 N 10 17 30.5 1033 10 16.0934 0 0
8:55 am 08:55 Sunny 28 -2 21 -6.1 74 74 N 16 26 30.5 1033 10 16.0934 0 0
9:15 am 09:15 Sunny 29 -1.6 21 -6.1 72 72 N 14 22 30.5 1033 10 16.0934 0 0
9:35 am 09:35 Sunny 30 -1.1 21 -6.1 69 69 N 15 24 30.5 1033 10 16.0934 0 0
9:55 am 09:55 Sunny 31 -0.6 21 -6.3 66 66 N 20 31 30.5 1033 10 16.0934 0 0
10:15 am 10:15 Sunny 32 -0.2 20 -6.4 63 63 NNW 17 28 30.48 1032 10 16.0934 0 0
10:35 am 10:35 Sunny 32 0 21 -6.2 63 63 NNW 12 19 30.53 1034 10 16.0934 0 0
10:55 am 10:55 Sunny 33 0.5 20 -6.6 59 59 N 15 24 30.5 1033 10 16.0934 0 0
11:15 am 11:15 Sunny 34 1 20 -6.5 58 58 NNW 16 26 30.5 1033 10 16.0934 0 0
11:35 am 11:35 Sunny 35 1.5 20 -6.9 54 54 NNW 16 26 30.5 1033 10 16.0934 0 0
11:55 am 11:55 Sunny 35 1.8 19 -7.1 52 52 N 17 28 30.5 1033 10 16.0934 0 0
12:15 pm 12:15 Sunny 36 2 19 -7.2 51 51 NNW 16 26 30.5 1033 10 16.0934 0 0
12:35 pm 12:35 Sunny 37 2.6 20 -6.9 50 50 NNW 16 26 30.5 1033 10 16.0934 0 0
12:55 pm 12:55 Sunny 38 3.1 20 -6.5 50 50 N 13 20 30.5 1033 10 16.0934 0 0
1:15 pm 13:15 Sunny 38 3.5 20 -6.4 49 49 NNW 15 24 30.45 1031 10 16.0934 0 0
1:35 pm 13:35 Sunny 38 3.5 20 -6.6 48 48 NNW 14 22 30.45 1031 10 16.0934 0 0
1:55 pm 13:55 Sunny 39 3.9 21 -6.3 48 48 N 12 19 30.45 1031 10 16.0934 0 0
2:15 pm 14:15 Sunny 40 4.2 21 -6 48 48 NNW 13 20 30.45 1031 10 16.0934 0 0
2:35 pm 14:35 Sunny 41 4.9 22 -5.7 47 47 NNW 12 19 30.42 1030 10 16.0934 0 0
2:55 pm 14:55 Sunny 41 5.1 22 -5.7 46 46 N 12 19 30.42 1030 10 16.0934 0 0
3:15 pm 15:15 Sunny 42 5.5 22 -5.6 45 45 NNW 12 19 30.39 1029 10 16.0934 0 0
3:35 pm 15:35 Sunny 42 5.7 22 -5.7 44 44 NNW 12 19 30.39 1029 10 16.0934 0 0
3:55 pm 15:55 Sunny 43 6.1 22 -5.7 43 43 N 9 15 30.39 1029 10 16.0934 0 0
4:15 pm 16:15 Sunny 43 6 22 -5.6 44 44 NNW 8 13 30.36 1028 10 16.0934 0 0
4:35 pm 16:35 Sunny 43 6.3 22 -5.4 43 43 N 8 13 30.36 1028 10 16.0934 0 0
4:55 pm 16:55 Sunny 43 6.2 22 -5.5 43 43 N 8 13 30.36 1028 10 16.0934 0 0
5:15 pm 17:15 Sunny 43 6 22 -5.5 44 44 NW 5 7 30.36 1028 10 16.0934 0 0
5:35 pm 17:35 Sunny 42 5.6 22 -5.4 45 45 NW 3 6 30.36 1028 10 16.0934 0 0
5:55 pm 17:55 Sunny 39 3.8 22 -5.3 52 52 NNE 5 7 30.39 1029 10 16.0934 0 0
6:15 pm 18:15 Clear 35 1.9 21 -5.9 57 57 NE 5 7 30.42 1030 10 16.0934 0 0
6:35 pm 18:35 Clear 33 0.7 22 -5.8 62 62 ENE 8 13 30.42 1030 10 16.0934 0 0
6:55 pm 18:55 Clear 35 1.5 22 -5.5 60 60 E 7 11 30.42 1030 10 16.0934 0 0
7:15 pm 19:15 Clear 33 0.5 22 -5.5 64 64 ENE 9 15 30.42 1030 10 16.0934 0 0
7:35 pm 19:35 Clear 32 0 21 -5.9 65 65 E 7 11 30.42 1030 10 16.0934 0 0
7:55 pm 19:55 Clear 30 -0.9 21 -6 69 69 E 5 7 30.45 1031 10 16.0934 0 0
8:15 pm 20:15 Clear 27 -2.8 20 -6.6 75 75 ENE 6 9 30.48 1032 10 16.0934 0 0
8:35 pm 20:35 Partly Cloudy 26 -3.3 20 -6.5 79 79 NE 7 11 30.48 1032 10 16.0934 0 0
8:55 pm 20:55 Mostly Cloudy 27 -2.7 21 -6.1 78 78 NE 5 7 30.5 1033 10 16.0934 0 0
9:15 pm 21:15 Cloudy 30 -1.1 23 -4.9 76 76 NE 6 9 30.5 1033 10 16.0934 0 0
9:35 pm 21:35 Cloudy 31 -0.5 24 -4.6 74 74 NE 3 6 30.48 1032 10 16.0934 0 0
9:55 pm 21:55 Cloudy 32 -0.2 24 -4.7 72 72 NNE 9 15 30.53 1034 10 16.0934 0 0
10:15 pm 22:15 Cloudy 32 0 23 -5 69 69 NE 16 26 30.53 1034 10 16.0934 0 0
10:35 pm 22:35 Cloudy 31 -0.5 21 -6.1 66 66 NE 10 17 30.56 1035 10 16.0934 0 0
10:55 pm 22:55 Partly Cloudy 29 -1.6 20 -6.6 69 69 NE 9 15 30.56 1035 10 16.0934 0 0
11:15 pm 23:15 Clear 28 -2.1 20 -6.9 70 70 NE 9 15 30.56 1035 10 16.0934 0 0
11:35 pm 23:35 Clear 28 -2.5 19 -7 72 72 NE 10 17 30.56 1035 10 16.0934 0 0
11:55 pm 23:55 Clear 27 -2.7 19 -7 73 73 NNE 10 17 30.59 1036 10 16.0934 0 0

Powered by AerisWeather